Regional Weather Roundup
Issued by NWS

Home | Current Version | Previous Version | Text Only | Print | Product List | Glossary On
Versions: 1 2 3 4 5 6 7 8 9 10 11 12 13 14 15 16 17 18 19 20 21 22 23 24 25 26 27 28 29 30 31 32 33 34 35 36 37 38 39 40 41 42 43 44 45 46 47 48 49 50
000
ASUS43 KDMX 111608
RWRIA

WEATHER ROUNDUP FOR IOWA
NATIONAL WEATHER SERVICE DES MOINES IA
1000 AM CST THU FEB 11 2016

NOTE: "FAIR" INDICATES FEW OR NO CLOUDS BELOW 12,000 FEET WITH NO
SIGNIFICANT WEATHER AND/OR OBSTRUCTIONS TO VISIBILITY.

* - THESE STATIONS ARE NOT NWS STATIONS...THUS NOT UNDER NWS
QUALITY CONTROL.  THEY ALSO DO NOT REPORT WEATHER SUCH
AS PRECIPITATION OR FOG.

IAZ001>003-012>014-020>022-031>034-043>046-111700-
   NORTHWEST IOWA

CITY           SKY/WX    TMP DP  RH WIND       PRES   REMARKS
CARROLL *      CLOUDY    10   3  72 SE3       30.32R
CHEROKEE *     CLOUDY    14   7  73 S8        30.29S WCI   3
DENISON *      CLOUDY    12   5  73 SE9       30.29S WCI   0
LE MARS *      CLOUDY    16  10  79 S9        30.30R WCI   4
ORANGE CITY *  CLOUDY    14   9  79 S7        30.27R WCI   4
SHELDON *      CLOUDY    12   7  79 SE10      30.26R WCI  -1
SIOUX CITY     CLOUDY    18   9  68 SE12      30.30R WCI   5
SPENCER        CLOUDY    11   2  67 S8        30.28S WCI  -1
STORM LAKE *   CLOUDY    12   7  79 SE10      30.27F WCI  -1
$$

IAZ055>058-069>071-079>083-090>094-111700-
   SOUTHWEST IOWA

CITY           SKY/WX    TMP DP  RH WIND       PRES   REMARKS
ATLANTIC *     CLOUDY    14   0  52 SE6       30.32S WCI   5
AUDUBON *      CLOUDY    12   1  62 E3        30.31R
CLARINDA *     CLOUDY    21   9  58 E8        30.33F WCI  12
COUNCIL BLFS * CLOUDY    16   5  62 E8        30.31R WCI   5
CRESTON *      CLOUDY    14   3  62 SE7       30.31S WCI   4
HARLAN  *      CLOUDY    14   3  62 E9        30.34S WCI   2
LAMONI         SUNNY     17   1  49 E7        30.32S WCI   8
RED OAK *      CLOUDY    18   5  57 E9        30.32F WCI   6
SHENANDOAH *   CLOUDY    21  10  63 NE3       30.34S
$$

IAZ047>049-059>061-072>074-084-111700-
   CENTRAL IOWA

CITY           SKY/WX    TMP DP  RH WIND       PRES   REMARKS
AMES           CLOUDY     8  -1  66 E6        30.34F WCI  -2
ANKENY *       SUNNY     10   0  61 E5        30.35F WCI   2
BOONE *        SUNNY      7  -2  66 CALM      30.31F
CHARITON *     SUNNY     12   1  62 E3        30.33F
DES MOINES     CLOUDY    13  -1  54 SE5       30.34F WCI   5
GRINNELL*      CLOUDY    12   3  67 E6        30.35S WCI   3
KNOXVILLE *    SUNNY     10  -2  56 CALM      30.34S
MARSHALLTOWN   CLOUDY     6   0  76 CALM      30.34R
NEWTON *       SUNNY      9   0  66 CALM      30.35S
PELLA *        CLOUDY    12   1  62 CALM      30.37S
$$

IAZ004>006-015-016-023>025-035-036-111700-
   NORTH CENTRAL IOWA

CITY           SKY/WX    TMP DP  RH WIND       PRES   REMARKS
ALGONA *       SUNNY      7   1  78 S7        30.29S WCI  -5
CLARION *      SUNNY      1  -6  71 CALM      30.32S
ESTHERVILLE    CLOUDY     7   2  80 S8        30.27F WCI  -6
FORT DODGE *   CLOUDY     9  -2  61 E5        30.32S WCI   0
MASON CITY     CLOUDY     3  -2  79 CALM      30.31S
FOREST CITY *  SUNNY      5   0  78 S3        30.29F
WEBSTER CITY * SUNNY      5  -4  66 CALM      30.30F
IOWA FALLS *     N/A      5  -2  72 CALM      30.33S HAZE
$$

IAZ007>011-017>019-026>030-037>042-050>054-066-111700-
   NORTHEAST IOWA

CITY           SKY/WX    TMP DP  RH WIND       PRES   REMARKS
CEDAR RAPIDS   SUNNY     13   3  64 E7        30.34R WCI   3
CHARLES CITY * SUNNY      3  -6  66 CALM      30.33S
CLINTON *      SUNNY     17   3  54 VRB3      30.36R
DECORAH *      SUNNY      5  -6  61 CALM      30.31R
DUBUQUE        SUNNY     11   0  61 NE9       30.31S WCI  -2
MONTICELLO *   SUNNY     12   0  57 CALM      30.35R
OELWEIN *      SUNNY      5  -4  66 CALM      30.34R
WATERLOO       CLOUDY     6  -1  73 CALM      30.35S
$$

IAZ064-065-067-068-078-111700-
   EAST CENTRAL IOWA

CITY           SKY/WX    TMP DP  RH WIND       PRES   REMARKS
DAVENPORT      SUNNY     14   1  56 E3        30.36R
IOWA CITY      SUNNY     15   2  56 E5        30.38S WCI   8
MT. PLEASANT * SUNNY     19   7  58 NE6       30.37R WCI  11
MUSCATINE *    SUNNY     18   1  49 NE6       30.39R WCI   9
QUAD CITIES    SUNNY     17   1  49 NE5       30.37R WCI  10
$$

IAZ062-063-075>077-085>089-095>099-111700-
   SOUTHEAST IOWA

CITY           SKY/WX    TMP DP  RH WIND       PRES   REMARKS
BURLINGTON     SUNNY     17   5  59 NE3       30.36R
FAIRFIELD *    SUNNY     14   3  62 VRB3      30.36R
FORT MADISON * SUNNY     16   7  67 E3        30.37R
KEOKUK *       SUNNY     16   5  62 E5        30.37R WCI   9
OSKALOOSA *      N/A     14   5  67 SE3       30.36S
CENTERVILLE *  SUNNY     14   1  57 CALM      30.36R
OTTUMWA        SUNNY     13   4  67 E6        30.35R WCI   4
WASHINGTON *   SUNNY     16   3  57 E6        30.38R WCI   7
$$

ABBREVIATIONS USED IN REMARKS
   TC - TEMPERATURES IN CELSIUS
  WCI - WIND CHILL INDEX
   HX - HEAT INDEX
  VSB - VISIBILITY
$$




USA.gov is the U.S. government's official web portal to all federal, state and local government web resources and services.